Flag for India Weather past 2 weeks in Muktsar, Punjab, India

Now
52 °F

Fog.


Feels Like: 51 °F
Forecast: 38 / 63 °F
Wind: 3 mph from West

Location: Lahore Airport

Current Time: Dec 29, 2014 at 6:40:23 PM

Latest Report: Dec 29, 2014 at 5:55 PM


Visibility: 0 mi

Pressure: 30.01 "Hg

Humidity: 88%

Dew point: 48 °F

Location of MuktsarLocation

Historic Weather in Muktsar — Graph

°F

Muktsar temperature yesterday

Maximum temperature yesterday: 55 °F (at 3:55 PM)
Minimum temperature yesterday: 41 °F (at 5:30 AM)
Average temperature yesterday: 46 °F

Past Weeks' High & Low Weather Summary

 TemperatureHumidityPressure
High66 °F (Dec 15, 2:55 PM)100% (Dec 17, 7:25 AM)30.27 "Hg (Dec 17, 7:25 AM)
Low34 °F (Dec 25, 6:55 PM)52% (Dec 15, 11:25 AM)29.59 "Hg (Dec 20, 7:30 AM)
Average48 °F87%30.11 "Hg
* Reported Dec 14 4:55 PM — Dec 29 5:25 PM, Muktsar, Weather by CustomWeather, © 2014

Note: Actual official high and low records may vary slightly from our data, if they occured in-between our weather recording intervals... More about our weather records

Advertising

Muktsar weather history for previous 24 hours

 ConditionsComfort  
Time TempWeatherWind HumidityBarometerVisibility
5:25 PM
Dec 29
52 °FFog.5 mph88%30.01 "Hg0 mi
4:55 PM54 °FFog.5 mph88%30.01 "Hg0 mi
4:25 PM54 °FFog.5 mph88%30.04 "Hg1 mi
3:55 PM55 °FFog.5 mph82%30.04 "Hg1 mi
3:25 PM55 °FFog.3 mph82%30.04 "Hg1 mi
2:55 PM54 °FFog.3 mph82%30.04 "Hg1 mi
2:25 PM54 °FFog.5 mph82%30.07 "Hg1 mi
1:55 PM52 °FFog.3 mph88%30.07 "Hg1 mi
1:25 PM48 °FFog.No wind94%30.09 "Hg1 mi
12:55 PM46 °FFog.No wind93%30.09 "Hg1 mi
12:25 PM45 °FFog.No wind100%30.12 "Hg0 mi
11:55 AM45 °FFog.No wind100%30.12 "Hg0 mi
11:25 AM43 °FFog.No wind100%30.12 "Hg0 mi
10:55 AM41 °FFog.No wind100%30.15 "Hg0 mi
10:25 AM41 °FFog.No wind100%30.15 "Hg0 mi
9:55 AM39 °FFog.No wind100%30.15 "Hg0 mi
9:25 AM39 °FFog.No wind100%30.12 "Hg0 mi
8:55 AM37 °FFog.No wind100%30.12 "Hg0 mi
8:25 AM37 °FFog.3 mph100%30.12 "Hg0 mi
7:55 AM37 °FFog.No wind100%30.12 "Hg0 mi
7:25 AM37 °FFog.No wind100%30.09 "Hg0 mi
6:55 AM39 °FFog.No wind100%30.09 "Hg0 mi
6:25 AM39 °FFog.No wind100%30.09 "Hg0 mi
5:25 AM39 °FFog.No wind100%30.09 "Hg0 mi
4:55 AM39 °FFog.No wind100%30.09 "Hg0 mi
4:25 AM39 °FFog.No wind100%30.09 "Hg0 mi
3:55 AM41 °FFog.No wind100%30.09 "Hg0 mi
3:25 AM41 °FFog.3 mph100%30.09 "Hg0 mi
2:55 AM41 °FFog.No wind100%30.12 "Hg0 mi
2:25 AM43 °FFog.3 mph100%30.12 "Hg0 mi
1:55 AM43 °FFog.3 mph93%30.12 "Hg0 mi
1:25 AM43 °FFog.No wind93%30.12 "Hg0 mi
12:25 AM46 °FFog.No wind82%30.12 "Hg1 mi
11:55 PM
Dec 28
46 °FFog.No wind87%30.12 "Hg1 mi
10:55 PM46 °FFog.5 mph87%30.12 "Hg1 mi
10:25 PM48 °FFog.No wind87%30.12 "Hg1 mi
9:55 PM48 °FFog.No wind87%30.12 "Hg1 mi
9:25 PM48 °FFog.No wind87%30.12 "Hg1 mi
8:55 PM50 °FPassing clouds.No wind76%30.12 "Hg1 mi
8:25 PM50 °FPassing clouds.No wind76%30.12 "Hg1 mi
7:55 PM52 °FPassing clouds.No wind72%30.09 "Hg1 mi
7:25 PM52 °FPassing clouds.No wind72%30.09 "Hg1 mi
6:55 PM52 °FPassing clouds.No wind82%30.09 "Hg1 mi
6:25 PM52 °FPassing clouds.No wind77%30.09 "Hg1 mi
Weather by CustomWeather, © 2014

See weather overviewHow to use our weather pages